Hourly Weather Roundup
Issued by NWS Central Illinois

Home | Current Version | Previous Version | Text Only | Print | Product List | Glossary On
Versions: 1 2 3 4 5 6 7 8 9 10 11 12 13 14 15 16 17 18 19 20 21 22 23 24 25 26 27 28 29 30 31 32 33 34 35 36 37 38 39 40 41 42 43 44 45 46 47 48 49 50
000
NZUS43 KILX 210710
HWRILX

AREA WEATHER ROUNDUP
NATIONAL WEATHER SERVICE, LINCOLN IL
200 AM CDT TUE OCT 21 2014


CITY           SKY/WX    TMP DP  RH WIND       PRES   REMARKS
BLOOMINGTON    CLEAR     44  42  93 N5        30.03R
CHAMPAIGN      CLEAR     46  44  93 MISG      30.01R
DECATUR        CLEAR     45  42  89 NE6       30.02R
FLORA          CLEAR     46  43  88 NW3       30.01R
GALESBURG      CLEAR     41  39  93 CALM      30.04S
JACKSONVILLE   CLEAR     48  43  82 NW5       30.03R
LACON          CLEAR     39  38  94 CALM      30.03S
LAWRENCEVILLE  CLEAR     47  44  90 NW5       30.00R
LITCHFIELD     CLEAR     48  42  78 W3        30.01S
$$


CITY           SKY/WX    TMP DP  RH WIND       PRES   REMARKS
LINCOLN        CLEAR     47  43  85 N3        30.01S
MACOMB         CLEAR     44  41  88 NE5       30.06S
MATTOON        CLEAR     47  42  83 N3        30.00R
MT CARMEL AP   CLEAR     46  45  93 CALM      30.00R
OLNEY-NOBLE AP CLEAR     45  43  93 CALM      30.00S
PARIS          MOCLDY    47  46  95 CALM      30.01R
PEORIA         CLEAR     47  42  83 CALM      30.04R
PONTIAC        PTCLDY    46  45  93 NW3       30.02R
RANTOUL        MOCLDY    46  43  89 NW3       30.01S FOG
ROBINSON       CLEAR     48  45  90 CALM      30.01R
SPRINGFIELD    CLEAR     45  43  93 N3        30.02R
TAYLORVILLE    CLEAR     45  43  93 CALM      30.02R
$$

...REGIONAL REPORTS...


CITY           SKY/WX    TMP DP  RH WIND       PRES   REMARKS
CHICAGO O`HARE CLOUDY    51  43  74 N6        30.01R
KANKAKEE       CLOUDY    50  46  85 NW3       30.02R
MOLINE         CLEAR     40  38  93 CALM      30.05R
MOUNT VERNON   CLEAR     45  39  81 CALM      30.01S
PITTSFIELD     CLEAR     48  43  82 W6        30.04R
QUINCY         CLEAR     47  42  83 NW7       30.04R
ROCKFORD       CLOUDY    47  41  80 NW6       30.06R
$$


CITY           SKY/WX    TMP DP  RH WIND       PRES   REMARKS
BURLINGTON     CLEAR     50  43  77 E6        30.04R
CEDAR RAPIDS   CLEAR     46  41  82 NE6       30.06R
DES MOINES     CLEAR     50  41  71 N3        30.06S
KIRKSVILLE     CLEAR     44  43  96 W3        30.07R
OTTUMWA        CLEAR     43  39  86 NW5       30.05R
ST LOUIS       CLEAR     52  44  74 W3        30.03S
$$


CITY           SKY/WX    TMP DP  RH WIND       PRES   REMARKS
TERRE HAUTE    MOCLDY    48  45  89 W3        29.99S
EVANSVILLE     CLEAR     50  44  80 SW3       30.00R
INDIANAPOLIS   CLOUDY    48  45  89 NW7       29.97S
LAFAYETTE      CLEAR     44  43  96 NW6       29.99R
MADISON        CLOUDY    48  40  73 N5        30.06R
MILWAUKEE      CLOUDY    49  41  74 N8        30.03R
$$




USA.gov is the U.S. government's official web portal to all federal, state and local government web resources and services.